Location: Del Amo
(33.8464°N, 118.2104°W)
Time: 16:50:12
(UTC+00:00)

Tiros 1 despin weight - Pass Details

Date: 20 September 2024
Orbit: 573 x 615 km, 48.2° (Epoch: 04 October)

Event Time Altitude Azimuth Distance (km) Brightness Sun altitude
Exits shadow 12:34:56 - 318° (NW) 2,504 ? -14.3°
Reaches altitude 10° 12:37:00 10° 336° (NNW) 1,979 ? -13.8°
Maximum altitude 12:39:31 15° 10° (N) 1,701 ? -13.3°
Drops below altitude 10° 12:42:03 10° 44° (NE) 1,980 ? -12.8°
Sets 12:45:21 0° 69° (ENE) 2,883 ? -12.1°
